Location: Unspecified
(56.5167°N, 0.0000°E)
Time: 10:16:58
(UTC+02:00)

Resurs 1-4 Rocket - Pass Details

Date: 04 August 2020
Orbit: 799 x 815 km, 98.6° (Epoch: 23 September)

Event Time Altitude Azimuth Distance (km) Brightness Sun altitude
Rises 04:41:51 0° 14° (NNE) 3,344 6.7 -9.5°
Reaches altitude 10° 04:44:15 10° 10° (N) 2,406 5.7 -9.3°
Maximum altitude 04:49:22 50° 296° (WNW) 1,026 2.6 -8.8°
Enters shadow 04:54:21 10° 223° (SW) 2,355 3.8 -8.4°
